Погода в Троекурове

Россия / Липецкая область     52°58′30″N   38°58′32″E
темп.,
°C
ветер,
м/с
пор.,
м/с
влажн.,
%
обл.,
%
осадки,
мм/ч
давл.,
гПа
погр.,
м
24 января, пн
пн2400:00−13ссв49100100 0.0 1032123
03:00−12св5129796 0.1 1032215
06:00−11ссв5149491 0.0 1032258
09:00−10ссв6149499 0.1 1033327
12:00−9св5119492 0.1 1032308
15:00−8св5109498 0.2 1031320
18:00−11ссв499779 0.0 1032136
21:00−13ссв389989 0.0 1031125
25 января, вт
вт2500:00−17св229952 0.0 103022
03:00−20ссв2210082 0.0 103016
06:00−22св2210099 0.0 102812
09:00−22св11100100 0.1 10279
12:00−13в119599 0.0 102595
15:00−11юз1193100 0.1 1023147
18:00−16зюз2298100 0.0 102215
21:00−17юз229899 0.0 102122
26 января, ср
ср2600:00−17зюз2497100 0.0 101961
03:00−19юз3410075 0.0 101959
06:00−20ююз2310057 0.0 101740
09:00−13ююз3696100 0.1 1016116
12:00−9юз3593100 0.3 1016277
15:00−7юз359291 0.4 1016345
18:00−11юз229885 0.1 101730
21:00−15з2210090 0.1 101710
27 января, чт
чт2700:00−15з229994 0.1 101816
03:00−16з2210096 0.1 101810
06:00−18з1110099 0.0 10189
09:00−15юз119899 0.1 101935
12:00−10ююз239376 0.1 1018151
15:00−9ююз249544 0.1 1017178
18:00−17ю2210098 0.0 101712
21:00−20ю22100100 0.0 101731
28 января, пт
пт2800:00−19ю35100100 0.0 101657
03:00−18ю37100100 0.1 101584
06:00−18ююв38100100 0.0 1014105
09:00−14ююв5139673 0.1 1012233
12:00−9ююв61494100 0.0 1010378
15:00−7ююв61395100 0.3 1008475
18:00−6ююв61295100 0.7 1007466
21:00−6ююв51095100 1.3 1005327